sat.trackr.live / text

‹ back to catalog

STARLINK-32688

NORAD 62193 · 2024-229B

PAYLOAD ACTIVE UNKNOWN

§ Identity

Operator
Country
US
Launch date
2024-12-04
Launch site
AFETR
Launch vehicle
Mass (kg)
RCS (m²)

Purposes: comms

External: N2YO · Heavens-Above · Gunter

§ Orbital elements

Epoch: 2026-09-21T16:08:11.179104Z

Period
94.27 min
Inclination
43.0062°
Eccentricity
0.0003007
Mean motion
15.27585750 rev/d
Perigee alt
481.0 km
Apogee alt
485.1 km
Semi-major
6,861.2 km
B*
3.2887e-4
RAAN
243.9754°
Arg perigee
267.6525°
Mean anomaly
92.3982°
Rev number
10,053

§ Raw data

STARLINK-326881 62193U 24229B   26264.67235161  .00008800  00000+0  32887-3 0  99972 62193  43.0062 243.9754 0003007 267.6525  92.3982 15.27585750100532

JSON: /api/v1/satellites/62193 · /tle

For live sub-satellite position, see the globe view (requires WebGL).

§ Visibility from observer

Set your observer location to see the next 7 days of passes ≥ 10°. The values pass through the URL so the page stays shareable.

No JS? Fill the form by hand. The geolocation button needs JavaScript.